LVBHL SADL-SADF

Flight info

Callsign LVBHL
Flight time 0h 24m
Altitude 3000
Route ILM/N0172F070 DCT VERAS/N0175F080
Aircraft PA34/L-SDFGRY/S

Departure

Time 2026-04-27 18:58
Airport La Plata Airport (SADL)

Arrival

Time 2026-04-27 19:23
Airport San Fernando Airport (SADF)
Time Latitude Longitude Altitude Speed Heading
2026-04-27 18:50 -34.96403 -57.88611 59 ft 0 kts 317°
2026-04-27 18:55 -34.96361 -57.88662 59 ft 13 kts 312°
2026-04-27 18:56 -34.96312 -57.88729 58 ft 9 kts 310°
2026-04-27 18:56 -34.96282 -57.88774 57 ft 5 kts 308°
2026-04-27 18:56 -34.96259 -57.88810 59 ft 9 kts 307°
2026-04-27 18:56 -34.96218 -57.88882 55 ft 10 kts 285°
2026-04-27 18:57 -34.96199 -57.88959 56 ft 11 kts 287°
2026-04-27 18:57 -34.96192 -57.89064 57 ft 19 kts 232°
2026-04-27 18:57 -34.96316 -57.89122 57 ft 0 kts 194°
2026-04-27 18:58 -34.96390 -57.89145 60 ft 44 kts 195°
2026-04-27 18:58 -34.96711 -57.89235 90 ft 92 kts 198°
2026-04-27 18:58 -34.97723 -57.89549 468 ft 126 kts 196°
2026-04-27 18:58 -34.98370 -57.90175 946 ft 122 kts 240°
2026-04-27 18:59 -34.98435 -57.91135 1470 ft 117 kts 278°
2026-04-27 18:59 -34.97934 -57.92046 1572 ft 143 kts 315°
2026-04-27 18:59 -34.97056 -57.92654 1828 ft 146 kts 326°
2026-04-27 18:59 -34.96160 -57.93237 2092 ft 146 kts 326°
2026-04-27 19:00 -34.95266 -57.93826 2352 ft 146 kts 326°
2026-04-27 19:00 -34.94392 -57.94401 2727 ft 140 kts 325°
2026-04-27 19:00 -34.93546 -57.94959 3091 ft 139 kts 324°
2026-04-27 19:00 -34.92618 -57.95581 3030 ft 160 kts 325°
2026-04-27 19:01 -34.91632 -57.96226 3172 ft 157 kts 326°
2026-04-27 19:01 -34.90666 -57.96861 3173 ft 167 kts 326°
2026-04-27 19:01 -34.89618 -57.97554 3031 ft 175 kts 326°
2026-04-27 19:01 -34.88546 -57.98258 3002 ft 173 kts 326°
2026-04-27 19:02 -34.87512 -57.98935 2997 ft 166 kts 326°
2026-04-27 19:02 -34.86524 -57.99586 3002 ft 162 kts 326°
2026-04-27 19:02 -34.85540 -58.00235 3008 ft 160 kts 326°
2026-04-27 19:02 -34.84558 -58.00882 3002 ft 160 kts 326°
2026-04-27 19:03 -34.83578 -58.01528 3007 ft 160 kts 326°
2026-04-27 19:03 -34.82600 -58.02171 3003 ft 160 kts 326°
2026-04-27 19:03 -34.81623 -58.02813 3008 ft 160 kts 326°
2026-04-27 19:03 -34.80960 -58.03249 3006 ft 160 kts 326°
2026-04-27 19:04 -34.79667 -58.04099 3007 ft 159 kts 326°
2026-04-27 19:04 -34.78694 -58.04738 3005 ft 159 kts 327°
2026-04-27 19:04 -34.77723 -58.05375 3005 ft 158 kts 327°
2026-04-27 19:04 -34.76750 -58.06014 3007 ft 159 kts 326°
2026-04-27 19:05 -34.75778 -58.06652 3006 ft 158 kts 326°
2026-04-27 19:05 -34.74811 -58.07287 3009 ft 158 kts 326°
2026-04-27 19:05 -34.73848 -58.07918 3004 ft 157 kts 326°
2026-04-27 19:05 -34.72895 -58.08544 3013 ft 157 kts 326°
2026-04-27 19:06 -34.71934 -58.09174 3012 ft 157 kts 326°
2026-04-27 19:06 -34.70970 -58.09806 3016 ft 158 kts 326°
2026-04-27 19:06 -34.70004 -58.10438 3013 ft 157 kts 326°
2026-04-27 19:06 -34.69042 -58.11070 3015 ft 156 kts 326°
2026-04-27 19:07 -34.68090 -58.11693 3011 ft 155 kts 326°
2026-04-27 19:07 -34.67140 -58.12314 3021 ft 155 kts 326°
2026-04-27 19:07 -34.66188 -58.12937 3023 ft 155 kts 326°
2026-04-27 19:07 -34.65235 -58.13562 3013 ft 156 kts 326°
2026-04-27 19:08 -34.64280 -58.14187 3018 ft 156 kts 326°
2026-04-27 19:08 -34.63326 -58.14811 3017 ft 156 kts 326°
2026-04-27 19:08 -34.62373 -58.15434 3026 ft 155 kts 326°
2026-04-27 19:08 -34.61438 -58.16046 3024 ft 155 kts 326°
2026-04-27 19:09 -34.60491 -58.16664 3027 ft 154 kts 326°
2026-04-27 19:09 -34.59548 -58.17281 3023 ft 153 kts 326°
2026-04-27 19:09 -34.58726 -58.18056 3025 ft 149 kts 312°
2026-04-27 19:09 -34.57946 -58.18897 3026 ft 150 kts 313°
2026-04-27 19:10 -34.57157 -58.19732 3031 ft 151 kts 314°
2026-04-27 19:10 -34.56364 -58.20570 3032 ft 151 kts 314°
2026-04-27 19:10 -34.55570 -58.21410 3031 ft 152 kts 314°
2026-04-27 19:10 -34.55043 -58.21967 3030 ft 151 kts 313°
2026-04-27 19:11 -34.53983 -58.23087 3029 ft 151 kts 313°
2026-04-27 19:11 -34.53193 -58.23922 3027 ft 150 kts 313°
2026-04-27 19:11 -34.52402 -58.24758 3028 ft 151 kts 313°
2026-04-27 19:11 -34.51612 -58.25592 3029 ft 151 kts 313°
2026-04-27 19:12 -34.50821 -58.26428 3029 ft 151 kts 314°
2026-04-27 19:12 -34.50032 -58.27261 3029 ft 150 kts 314°
2026-04-27 19:12 -34.49255 -58.28102 3021 ft 149 kts 311°
2026-04-27 19:12 -34.48520 -58.28981 3023 ft 148 kts 310°
2026-04-27 19:13 -34.47778 -58.29863 2951 ft 153 kts 310°
2026-04-27 19:13 -34.47004 -58.30772 2827 ft 157 kts 311°
2026-04-27 19:13 -34.46211 -58.31697 2703 ft 158 kts 311°
2026-04-27 19:13 -34.45414 -58.32626 2577 ft 159 kts 311°
2026-04-27 19:14 -34.44613 -58.33561 2452 ft 160 kts 311°
2026-04-27 19:14 -34.43824 -58.34481 2323 ft 159 kts 311°
2026-04-27 19:14 -34.43033 -58.35403 2194 ft 157 kts 311°
2026-04-27 19:14 -34.42245 -58.36323 2066 ft 157 kts 311°
2026-04-27 19:15 -34.41464 -58.37235 1989 ft 153 kts 312°
2026-04-27 19:15 -34.40708 -58.38113 1993 ft 149 kts 312°
2026-04-27 19:15 -34.39965 -58.38978 1993 ft 148 kts 311°
2026-04-27 19:15 -34.39223 -58.39845 1992 ft 148 kts 311°
2026-04-27 19:16 -34.38482 -58.40707 1993 ft 147 kts 310°
2026-04-27 19:16 -34.37976 -58.41257 1992 ft 148 kts 315°
2026-04-27 19:16 -34.36993 -58.42396 1990 ft 145 kts 309°
2026-04-27 19:16 -34.36270 -58.43246 1994 ft 145 kts 311°
2026-04-27 19:17 -34.35545 -58.44096 1992 ft 145 kts 311°
2026-04-27 19:17 -34.35021 -58.45105 1986 ft 143 kts 284°
2026-04-27 19:17 -34.34987 -58.46281 1994 ft 141 kts 258°
2026-04-27 19:17 -34.35419 -58.47316 1993 ft 142 kts 232°
2026-04-27 19:18 -34.36139 -58.48158 1994 ft 143 kts 226°
2026-04-27 19:18 -34.36852 -58.48990 1993 ft 141 kts 226°
2026-04-27 19:18 -34.37538 -58.49789 1995 ft 130 kts 227°
2026-04-27 19:18 -34.38166 -58.50525 1891 ft 121 kts 227°
2026-04-27 19:19 -34.38744 -58.51202 1745 ft 108 kts 227°
2026-04-27 19:19 -34.39237 -58.51779 1593 ft 89 kts 227°
2026-04-27 19:19 -34.39660 -58.52278 1472 ft 86 kts 227°
2026-04-27 19:19 -34.40102 -58.52796 1359 ft 88 kts 227°
2026-04-27 19:20 -34.40520 -58.53290 1243 ft 83 kts 229°
2026-04-27 19:20 -34.40929 -58.53766 1122 ft 78 kts 229°
2026-04-27 19:20 -34.41295 -58.54196 1009 ft 70 kts 231°
2026-04-27 19:20 -34.41674 -58.54646 916 ft 83 kts 230°
2026-04-27 19:21 -34.42108 -58.55158 805 ft 93 kts 229°
2026-04-27 19:21 -34.42584 -58.55716 678 ft 94 kts 228°
2026-04-27 19:21 -34.43001 -58.56205 539 ft 76 kts 226°
2026-04-27 19:21 -34.43377 -58.56643 435 ft 77 kts 225°
2026-04-27 19:22 -34.43767 -58.57104 331 ft 80 kts 225°
2026-04-27 19:22 -34.44150 -58.57552 250 ft 74 kts 224°
2026-04-27 19:22 -34.44512 -58.57975 187 ft 71 kts 226°
2026-04-27 19:22 -34.44855 -58.58383 87 ft 67 kts 226°
2026-04-27 19:23 -34.45176 -58.58759 26 ft 59 kts 224°
2026-04-27 19:23 -34.45423 -58.59051 21 ft 41 kts 224°
2026-04-27 19:23 -34.45549 -58.59199 21 ft 35 kts 224°
2026-04-27 19:23 -34.45701 -58.59294 21 ft 15 kts 145°
2026-04-27 19:24 -34.45794 -58.59227 21 ft 16 kts 153°
2026-04-27 19:24 -34.45822 -58.59124 21 ft 17 kts 67°
2026-04-27 19:24 -34.45765 -58.58987 21 ft 20 kts 63°
2026-04-27 19:24 -34.45698 -58.58832 21 ft 22 kts 64°
2026-04-27 19:25 -34.45624 -58.58660 21 ft 24 kts 63°
2026-04-27 19:25 -34.45556 -58.58500 21 ft 20 kts 62°
2026-04-27 19:25 -34.45489 -58.58348 21 ft 16 kts 61°
2026-04-27 19:25 -34.45471 -58.58241 21 ft 13 kts 141°
2026-04-27 19:26 -34.45494 -58.58243 21 ft 0 kts 246°